Weather History for Burlington, VT

Change the Weather History Date:

Sunday, March 9, 2014

  Actual Average Record
Temperature  
Mean Temperature 21 °F 28 °F  
Max Temperature 29 °F 37 °F 66 °F (2002)
Min Temperature 12 °F 19 °F -15 °F (2007)
Degree Days  
Heating Degree Days 44 37  
Month to date heating degree days 446 345  
Since 1 July heating degree days 5911 5755  
Cooling Degree Days 0 0  
Month to date cooling degree days 0 0  
Year to date cooling degree days 0 0  
Moisture  
Dew Point 7 °F    
Average Humidity 59    
Maximum Humidity 84    
Minimum Humidity 34    
Precipitation  
Precipitation T in 0.08 in 0.72 in (1946)
Month to date precipitation 0.04 0.61  
Year to date precipitation 4.32 4.43  
Snow  
Snow T in 0.70 in 11.50 in (1916)
Month to date snowfall 1.9 5.7  
Since 1 July snowfall 60.2 66.5  
Snow Depth 4.00 in    
Sea Level Pressure  
Sea Level Pressure 29.96 in    
Wind  
Wind Speed 5 mph (NNW)    
Max Wind Speed 13 mph    
Max Gust Speed 15 mph    
Visibility 10 miles    
Events Snow    
T = Trace of Precipitation, MM = Missing Value Source: NWS Daily Summary

Daily Weather History Graph

Daily Weather History Graph

Search for Another Location

Airport:

Trip Planner

Search our weather history database for the weather conditions in past years. The results will help you decide how hot, cold, wet, or windy it might be!

Date:

Astronomy

Mar. 09, 2014 Rise Set
Actual Time 7:15 AM EDT 6:51 PM EDT
Civil Twilight 6:46 AM EDT 7:20 PM EDT
Nautical Twilight 6:13 AM EDT 7:53 PM EDT
Astronomical Twilight 5:39 AM EDT 8:27 PM EDT
Moon 12:31 PM EDT (3/9) 3:49 AM EDT (3/9)
Length of Visible Light 12h 33m
Length of Day
11h 35m
First Quarter, 61% of the Moon is Illuminated
Mar 9
First Quarter
Mar 16
Full
Mar 23
Last Quarter
Mar 30
New
Apr 7
First Quarter

Hourly Weather History & Observations

Time (EDT) Temp. Windchill Dew Point Humidity Pressure Visibility Wind Dir Wind Speed Gust Speed Precip Events Conditions
12:54 AM 21.0 °F 13.4 °F 10.0 °F 63% 29.95 in 10.0 mi NNW 5.8 mph - N/A   Clear
1:54 AM 19.9 °F 12.1 °F 9.0 °F 62% 29.95 in 10.0 mi NNW 5.8 mph - N/A   Clear
3:54 AM 19.0 °F 13.9 °F 9.0 °F 65% 29.95 in 10.0 mi NNW 3.5 mph - N/A   Clear
4:54 AM 17.1 °F 10.0 °F 9.0 °F 71% 29.96 in 10.0 mi NNW 4.6 mph - N/A   Clear
5:54 AM 16.0 °F 7.4 °F 8.1 °F 71% 29.98 in 10.0 mi NNW 5.8 mph - N/A   Clear
6:54 AM 12.9 °F 5.2 °F 8.1 °F 81% 30.00 in 10.0 mi North 4.6 mph - N/A   Clear
7:54 AM 12.9 °F 3.8 °F 7.0 °F 77% 30.01 in 10.0 mi NNW 5.8 mph - N/A   Partly Cloudy
8:54 AM 16.0 °F 7.4 °F 6.1 °F 65% 30.04 in 10.0 mi NNW 5.8 mph - N/A   Partly Cloudy
9:54 AM 18.0 °F 11.1 °F 5.0 °F 57% 30.04 in 10.0 mi North 4.6 mph - N/A   Partly Cloudy
10:54 AM 21.0 °F 16.2 °F 5.0 °F 50% 30.06 in 10.0 mi NNW 3.5 mph - N/A   Partly Cloudy
11:54 AM 23.0 °F 15.8 °F 5.0 °F 46% 30.04 in 10.0 mi NW 5.8 mph - N/A   Partly Cloudy
12:54 PM 25.0 °F 16.3 °F 6.1 °F 45% 30.03 in 10.0 mi NNW 8.1 mph - N/A   Partly Cloudy
1:54 PM 26.1 °F 16.8 °F 6.1 °F 43% 30.01 in 10.0 mi NNW 9.2 mph - N/A   Partly Cloudy
2:54 PM 27.0 °F 20.5 °F 5.0 °F 39% 29.98 in 10.0 mi NNW 5.8 mph - N/A   Clear
3:54 PM 28.0 °F 19.3 °F 6.1 °F 39% 29.97 in 10.0 mi North 9.2 mph - N/A   Clear
4:54 PM 28.0 °F 20.0 °F 5.0 °F 38% 29.94 in 10.0 mi North 8.1 mph - N/A   Clear
5:54 PM 28.0 °F 21.7 °F 3.9 °F 36% 29.94 in 10.0 mi North 5.8 mph - N/A   Clear
6:54 PM 26.1 °F 18.4 °F 6.1 °F 43% 29.94 in 10.0 mi NNW 6.9 mph - N/A   Clear
7:54 PM 26.1 °F - 3.9 °F 39% 29.93 in 10.0 mi Calm Calm - N/A   Overcast
8:54 PM 26.1 °F - 3.9 °F 39% 29.91 in 10.0 mi Calm Calm - N/A   Overcast
9:54 PM 25.0 °F - 8.1 °F 49% 29.89 in 10.0 mi Calm Calm - N/A   Overcast
10:54 PM 25.0 °F 20.7 °F 10.9 °F 55% 29.88 in 10.0 mi South 3.5 mph - N/A   Overcast
11:54 PM 24.1 °F - 10.9 °F 57% 29.87 in 10.0 mi Calm Calm - N/A   Overcast
12:50 AM 23.0 °F 17.0 °F 14.0 °F 68% 29.84 in 5.0 mi East 4.6 mph - 0.00 in Snow Light Snow
12:54 AM 23.0 °F 15.8 °F 15.1 °F 72% 29.85 in 4.0 mi East 5.8 mph - 0.00 in Snow Light Snow